Year,Month,Day,Hour,Minute,Value (Times are PST for windspeed in km/hr)
2010,07,13,00,00,14.60
2010,07,13,00,01,12.00
2010,07,13,00,02,13.70
2010,07,13,00,03,16.10
2010,07,13,00,04,10.20
2010,07,13,00,05,10.40
2010,07,13,00,06,10.10
2010,07,13,00,07,12.70
2010,07,13,00,08,12.20
2010,07,13,00,09,11.60
2010,07,13,00,10,8.70
2010,07,13,00,11,8.20
2010,07,13,00,12,11.40
2010,07,13,00,13,5.60
2010,07,13,00,14,11.10
2010,07,13,00,15,10.80
2010,07,13,00,16,9.60
2010,07,13,00,17,9.70
2010,07,13,00,18,6.20
2010,07,13,00,19,11.60
2010,07,13,00,20,9.30
2010,07,13,00,21,12.00
2010,07,13,00,22,11.40
2010,07,13,00,23,11.30
2010,07,13,00,24,11.40
2010,07,13,00,25,8.40
2010,07,13,00,26,8.80
2010,07,13,00,27,9.40
2010,07,13,00,28,9.70
2010,07,13,00,29,8.70
2010,07,13,00,30,11.80
2010,07,13,00,31,9.70
2010,07,13,00,32,9.00
2010,07,13,00,33,8.00
2010,07,13,00,34,9.10
2010,07,13,00,35,6.70
2010,07,13,00,36,8.70
2010,07,13,00,37,10.10
2010,07,13,00,38,11.70
2010,07,13,00,39,10.40
2010,07,13,00,40,10.40
2010,07,13,00,41,6.10
2010,07,13,00,42,9.20
2010,07,13,00,43,6.80
2010,07,13,00,44,7.90
2010,07,13,00,45,5.20
2010,07,13,00,46,6.30
2010,07,13,00,47,8.40
2010,07,13,00,48,6.90
2010,07,13,00,49,6.00
2010,07,13,00,50,7.10
2010,07,13,00,51,4.80
2010,07,13,00,52,6.90
2010,07,13,00,53,7.70
2010,07,13,00,54,7.80
2010,07,13,00,55,5.30
2010,07,13,00,56,6.30
2010,07,13,00,57,7.30
2010,07,13,00,58,4.90
2010,07,13,00,59,6.50
2010,07,13,01,00,8.10
2010,07,13,01,01,7.30
2010,07,13,01,02,7.10
2010,07,13,01,03,6.60
2010,07,13,01,04,6.90
2010,07,13,01,05,3.90
2010,07,13,01,06,8.40
2010,07,13,01,07,9.70
2010,07,13,01,08,11.40
2010,07,13,01,09,8.00
2010,07,13,01,10,8.60
2010,07,13,01,11,6.70
2010,07,13,01,12,9.70
2010,07,13,01,13,5.80
2010,07,13,01,14,3.80
2010,07,13,01,15,3.60
2010,07,13,01,16,4.80
2010,07,13,01,17,2.90
2010,07,13,01,18,4.30
2010,07,13,01,19,4.60
2010,07,13,01,20,3.80
2010,07,13,01,21,8.80
2010,07,13,01,22,9.90
2010,07,13,01,23,7.50
2010,07,13,01,24,5.40
2010,07,13,01,25,6.70
2010,07,13,01,26,4.00
2010,07,13,01,27,7.20
2010,07,13,01,28,6.80
2010,07,13,01,29,8.00
2010,07,13,01,30,7.50
2010,07,13,01,31,6.80
2010,07,13,01,32,6.80
2010,07,13,01,33,9.00
2010,07,13,01,34,7.90
2010,07,13,01,35,11.20
2010,07,13,01,36,6.90
2010,07,13,01,37,6.80
2010,07,13,01,38,6.60
2010,07,13,01,39,7.30
2010,07,13,01,40,6.80
2010,07,13,01,41,7.50
2010,07,13,01,42,9.40
2010,07,13,01,43,8.60
2010,07,13,01,44,9.10
2010,07,13,01,45,7.50
2010,07,13,01,46,7.90
2010,07,13,01,47,8.50
2010,07,13,01,48,7.00
2010,07,13,01,49,5.80
2010,07,13,01,50,3.80
2010,07,13,01,51,5.70
2010,07,13,01,52,8.10
2010,07,13,01,53,6.00
2010,07,13,01,54,6.30
2010,07,13,01,55,5.70
2010,07,13,01,56,6.60
2010,07,13,01,57,7.50
2010,07,13,01,58,6.70
2010,07,13,01,59,5.80
2010,07,13,02,00,6.10
2010,07,13,02,01,5.40
2010,07,13,02,02,7.20
2010,07,13,02,03,7.30
2010,07,13,02,04,9.40
2010,07,13,02,05,8.30
2010,07,13,02,06,5.30
2010,07,13,02,07,6.10
2010,07,13,02,08,5.00
2010,07,13,02,09,4.50
2010,07,13,02,10,7.30
2010,07,13,02,11,9.70
2010,07,13,02,12,6.50
2010,07,13,02,13,5.30
2010,07,13,02,14,7.60
2010,07,13,02,15,5.30
2010,07,13,02,16,7.30
2010,07,13,02,17,6.70
2010,07,13,02,18,5.60
2010,07,13,02,19,3.70
2010,07,13,02,20,3.70
2010,07,13,02,21,4.40
2010,07,13,02,22,5.20
2010,07,13,02,23,6.90
2010,07,13,02,24,6.90
2010,07,13,02,25,5.30
2010,07,13,02,26,4.80
2010,07,13,02,27,4.80
2010,07,13,02,28,2.10
2010,07,13,02,29,5.70
2010,07,13,02,30,5.70
2010,07,13,02,31,6.00
2010,07,13,02,32,7.60
2010,07,13,02,33,5.70
2010,07,13,02,34,4.50
2010,07,13,02,35,5.90
2010,07,13,02,36,6.00
2010,07,13,02,37,2.70
2010,07,13,02,38,5.20
2010,07,13,02,39,6.90
2010,07,13,02,40,6.70
2010,07,13,02,41,7.60
2010,07,13,02,42,6.30
2010,07,13,02,43,6.60
2010,07,13,02,44,6.10
2010,07,13,02,45,5.00
2010,07,13,02,46,6.20
2010,07,13,02,47,5.30
2010,07,13,02,48,6.80
2010,07,13,02,49,5.10
2010,07,13,02,50,5.70
2010,07,13,02,51,4.00
2010,07,13,02,52,5.10
2010,07,13,02,53,6.80
2010,07,13,02,54,5.80
2010,07,13,02,55,6.00
2010,07,13,02,56,3.10
2010,07,13,02,57,5.10
2010,07,13,02,58,4.00
2010,07,13,02,59,8.90
2010,07,13,03,00,5.50
2010,07,13,03,01,6.70
2010,07,13,03,02,6.50
2010,07,13,03,03,6.40
2010,07,13,03,04,3.40
2010,07,13,03,05,7.60
2010,07,13,03,06,5.00
2010,07,13,03,07,4.70
2010,07,13,03,08,3.60
2010,07,13,03,09,4.90
2010,07,13,03,10,4.50
2010,07,13,03,11,2.30
2010,07,13,03,12,4.40
2010,07,13,03,13,4.50
2010,07,13,03,14,2.50
2010,07,13,03,15,0.30
2010,07,13,03,16,1.00
2010,07,13,03,17,3.00
2010,07,13,03,18,7.30
2010,07,13,03,19,4.20
2010,07,13,03,20,5.00
2010,07,13,03,21,4.70
2010,07,13,03,22,3.00
2010,07,13,03,23,4.80
2010,07,13,03,24,4.90
2010,07,13,03,25,2.50
2010,07,13,03,26,2.90
2010,07,13,03,27,3.70
2010,07,13,03,28,5.40
2010,07,13,03,29,4.10
2010,07,13,03,30,3.60
2010,07,13,03,31,2.70
2010,07,13,03,32,3.10
2010,07,13,03,33,3.40
2010,07,13,03,34,2.20
2010,07,13,03,35,4.30
2010,07,13,03,36,2.90
2010,07,13,03,37,2.20
2010,07,13,03,38,3.50
2010,07,13,03,39,1.70
2010,07,13,03,40,4.60
2010,07,13,03,41,5.90
2010,07,13,03,42,6.30
2010,07,13,03,43,3.00
2010,07,13,03,44,3.90
2010,07,13,03,45,3.30
2010,07,13,03,46,3.10
2010,07,13,03,47,1.10
2010,07,13,03,48,0.10
2010,07,13,03,49,3.30
2010,07,13,03,50,2.50
2010,07,13,03,51,1.40
2010,07,13,03,52,2.40
2010,07,13,03,53,2.00
2010,07,13,03,54,3.60
2010,07,13,03,55,4.90
2010,07,13,03,56,4.40
2010,07,13,03,57,3.50
2010,07,13,03,58,2.40
2010,07,13,03,59,1.50
2010,07,13,04,00,1.20
2010,07,13,04,01,3.80
2010,07,13,04,02,3.70
2010,07,13,04,03,3.60
2010,07,13,04,04,5.60
2010,07,13,04,05,3.50
2010,07,13,04,06,4.60
2010,07,13,04,07,3.30
2010,07,13,04,08,3.70
2010,07,13,04,09,2.90
2010,07,13,04,10,3.90
2010,07,13,04,11,3.60
2010,07,13,04,12,5.90
2010,07,13,04,13,2.00
2010,07,13,04,14,3.80
2010,07,13,04,15,3.90
2010,07,13,04,16,3.50
2010,07,13,04,17,6.40
2010,07,13,04,18,4.70
2010,07,13,04,19,2.60
2010,07,13,04,20,3.60
2010,07,13,04,21,1.60
2010,07,13,04,22,2.60
2010,07,13,04,23,4.70
2010,07,13,04,24,4.60
2010,07,13,04,25,7.50
2010,07,13,04,26,7.90
2010,07,13,04,27,5.30
2010,07,13,04,28,2.80
2010,07,13,04,29,2.60
2010,07,13,04,30,2.90
2010,07,13,04,31,4.30
2010,07,13,04,32,4.30
2010,07,13,04,33,3.20
2010,07,13,04,34,4.00
2010,07,13,04,35,7.00
2010,07,13,04,36,4.80
2010,07,13,04,37,4.60
2010,07,13,04,38,3.00
2010,07,13,04,39,2.30
2010,07,13,04,40,2.20
2010,07,13,04,41,4.40
2010,07,13,04,42,4.80
2010,07,13,04,43,1.70
2010,07,13,04,44,1.90
2010,07,13,04,45,3.10
2010,07,13,04,46,3.00
2010,07,13,04,47,3.90
2010,07,13,04,48,3.50
2010,07,13,04,49,1.50
2010,07,13,04,50,1.90
2010,07,13,04,51,1.50
2010,07,13,04,52,0.60
2010,07,13,04,53,0.40
2010,07,13,04,54,0.00
2010,07,13,04,55,0.00
2010,07,13,04,56,0.00
2010,07,13,04,57,1.00
2010,07,13,04,58,1.70
2010,07,13,04,59,2.90
2010,07,13,05,00,4.50
2010,07,13,05,01,3.80
2010,07,13,05,02,2.10
2010,07,13,05,03,0.90
2010,07,13,05,04,0.30
2010,07,13,05,05,0.70
2010,07,13,05,06,1.50
2010,07,13,05,07,1.20
2010,07,13,05,08,0.60
2010,07,13,05,09,0.00
2010,07,13,05,10,0.00
2010,07,13,05,11,0.10
2010,07,13,05,12,0.00
2010,07,13,05,13,0.10
2010,07,13,05,14,0.00
2010,07,13,05,15,0.00
2010,07,13,05,16,0.70
2010,07,13,05,17,1.90
2010,07,13,05,18,2.60
2010,07,13,05,19,2.60
2010,07,13,05,20,2.10
2010,07,13,05,21,1.90
2010,07,13,05,22,2.50
2010,07,13,05,23,3.20
2010,07,13,05,24,3.10
2010,07,13,05,25,6.20
2010,07,13,05,26,3.90
2010,07,13,05,27,5.70
2010,07,13,05,28,7.00
2010,07,13,05,29,7.20
2010,07,13,05,30,4.70
2010,07,13,05,31,5.90
2010,07,13,05,32,7.50
2010,07,13,05,33,8.10
2010,07,13,05,34,5.00
2010,07,13,05,35,3.40
2010,07,13,05,36,6.10
2010,07,13,05,37,4.00
2010,07,13,05,38,5.50
2010,07,13,05,39,7.30
2010,07,13,05,40,7.50
2010,07,13,05,41,7.00
2010,07,13,05,42,4.60
2010,07,13,05,43,5.60
2010,07,13,05,44,2.30
2010,07,13,05,45,1.00
2010,07,13,05,46,0.80
2010,07,13,05,47,5.40
2010,07,13,05,48,6.90
2010,07,13,05,49,6.70
2010,07,13,05,50,6.70
2010,07,13,05,51,5.00
2010,07,13,05,52,5.80
2010,07,13,05,53,5.50
2010,07,13,05,54,5.30
2010,07,13,05,55,4.10
2010,07,13,05,56,5.30
2010,07,13,05,57,2.70
2010,07,13,05,58,6.30
2010,07,13,05,59,6.90
2010,07,13,06,00,3.90
2010,07,13,06,01,4.50
2010,07,13,06,02,5.30
2010,07,13,06,03,4.20
2010,07,13,06,04,8.80
2010,07,13,06,05,7.50
2010,07,13,06,06,6.00
2010,07,13,06,07,6.20
2010,07,13,06,08,7.30
2010,07,13,06,09,4.50
2010,07,13,06,10,7.00
2010,07,13,06,11,7.80
2010,07,13,06,12,6.40
2010,07,13,06,13,1.60
2010,07,13,06,14,0.20
2010,07,13,06,15,5.40
2010,07,13,06,16,5.50
2010,07,13,06,17,1.40
2010,07,13,06,18,3.00
2010,07,13,06,19,3.40
2010,07,13,06,20,2.50
2010,07,13,06,21,1.50
2010,07,13,06,22,3.00
2010,07,13,06,23,3.00
2010,07,13,06,24,4.10
2010,07,13,06,25,3.80
2010,07,13,06,26,1.70
2010,07,13,06,27,3.90
2010,07,13,06,28,4.60
2010,07,13,06,29,5.50
2010,07,13,06,30,5.10
2010,07,13,06,31,1.40
2010,07,13,06,32,2.90
2010,07,13,06,33,4.40
2010,07,13,06,34,3.30
2010,07,13,06,35,3.70
2010,07,13,06,36,1.90
2010,07,13,06,37,0.80
2010,07,13,06,38,0.60
2010,07,13,06,39,0.80
2010,07,13,06,40,2.90
2010,07,13,06,41,5.40
2010,07,13,06,42,2.20
2010,07,13,06,43,2.50
2010,07,13,06,44,2.20
2010,07,13,06,45,0.70
2010,07,13,06,46,1.90
2010,07,13,06,47,4.70
2010,07,13,06,48,3.70
2010,07,13,06,49,5.30
2010,07,13,06,50,3.20
2010,07,13,06,51,5.30
2010,07,13,06,52,4.50
2010,07,13,06,53,5.00
2010,07,13,06,54,5.50
2010,07,13,06,55,3.70
2010,07,13,06,56,4.70
2010,07,13,06,57,5.10
2010,07,13,06,58,4.80
2010,07,13,06,59,4.90
2010,07,13,07,00,5.00
2010,07,13,07,01,4.30
2010,07,13,07,02,7.00
2010,07,13,07,03,4.00
2010,07,13,07,04,1.00
2010,07,13,07,05,1.50
2010,07,13,07,06,4.80
2010,07,13,07,07,5.30
2010,07,13,07,08,5.80
2010,07,13,07,09,3.60
2010,07,13,07,10,5.70
2010,07,13,07,11,4.10
2010,07,13,07,12,5.70
2010,07,13,07,13,4.20
2010,07,13,07,14,7.10
2010,07,13,07,15,5.60
2010,07,13,07,16,4.10
2010,07,13,07,17,2.00
2010,07,13,07,18,3.10
2010,07,13,07,19,3.80
2010,07,13,07,20,3.50
2010,07,13,07,21,3.90
2010,07,13,07,22,2.80
2010,07,13,07,23,3.40
2010,07,13,07,24,2.40
2010,07,13,07,25,1.80
2010,07,13,07,26,4.70
2010,07,13,07,27,2.50
2010,07,13,07,28,2.30
2010,07,13,07,29,2.50
2010,07,13,07,30,1.40
2010,07,13,07,31,1.70
2010,07,13,07,32,2.10
2010,07,13,07,33,1.40
2010,07,13,07,34,2.00
2010,07,13,07,35,2.00
2010,07,13,07,36,4.60
2010,07,13,07,37,3.10
2010,07,13,07,38,3.90
2010,07,13,07,39,4.20
2010,07,13,07,40,4.30
2010,07,13,07,41,3.50
2010,07,13,07,42,1.30
2010,07,13,07,43,0.50
2010,07,13,07,44,0.80
2010,07,13,07,45,0.70
2010,07,13,07,46,2.60
2010,07,13,07,47,1.00
2010,07,13,07,48,0.00
2010,07,13,07,49,2.20
2010,07,13,07,50,2.10
2010,07,13,07,51,0.20
2010,07,13,07,52,0.70
2010,07,13,07,53,1.60
2010,07,13,07,54,2.40
2010,07,13,07,55,0.80
2010,07,13,07,56,2.70
2010,07,13,07,57,2.60
2010,07,13,07,58,4.50
2010,07,13,07,59,2.50
2010,07,13,08,00,0.70
2010,07,13,08,01,0.40
2010,07,13,08,02,2.90
2010,07,13,08,03,3.10
2010,07,13,08,04,4.70
2010,07,13,08,05,6.40
2010,07,13,08,06,5.30
2010,07,13,08,07,4.10
2010,07,13,08,08,4.40
2010,07,13,08,09,4.90
2010,07,13,08,10,3.10
2010,07,13,08,11,2.20
2010,07,13,08,12,4.30
2010,07,13,08,13,7.30
2010,07,13,08,14,6.20
2010,07,13,08,15,4.30
2010,07,13,08,16,4.20
2010,07,13,08,17,9.20
2010,07,13,08,18,8.30
2010,07,13,08,19,8.10
2010,07,13,08,20,7.00
2010,07,13,08,21,5.00
2010,07,13,08,22,1.40
2010,07,13,08,23,3.90
2010,07,13,08,24,3.50
2010,07,13,08,25,6.70
2010,07,13,08,26,6.60
2010,07,13,08,27,5.30
2010,07,13,08,28,6.50
2010,07,13,08,29,4.00
2010,07,13,08,30,4.80
2010,07,13,08,31,5.70
2010,07,13,08,32,3.90
2010,07,13,08,33,7.60
2010,07,13,08,34,8.10
2010,07,13,08,35,6.80
2010,07,13,08,36,4.50
2010,07,13,08,37,8.10
2010,07,13,08,38,6.30
2010,07,13,08,39,6.30
2010,07,13,08,40,4.90
2010,07,13,08,41,3.90
2010,07,13,08,42,4.50
2010,07,13,08,43,4.90
2010,07,13,08,44,8.00
2010,07,13,08,45,6.70
2010,07,13,08,46,5.30
2010,07,13,08,47,4.00
2010,07,13,08,48,6.20
2010,07,13,08,49,6.00
2010,07,13,08,50,3.90
2010,07,13,08,51,2.60
2010,07,13,08,52,5.80
2010,07,13,08,53,7.80
2010,07,13,08,54,5.10
2010,07,13,08,55,6.20
2010,07,13,08,56,6.10
2010,07,13,08,57,5.90
2010,07,13,08,58,9.40
2010,07,13,08,59,5.90
2010,07,13,09,00,7.60
2010,07,13,09,01,6.70
2010,07,13,09,02,9.50
2010,07,13,09,03,11.50
2010,07,13,09,04,7.00
2010,07,13,09,05,8.10
2010,07,13,09,06,6.50
2010,07,13,09,07,7.00
2010,07,13,09,08,9.10
2010,07,13,09,09,8.50
2010,07,13,09,10,12.00
2010,07,13,09,11,10.10
2010,07,13,09,12,6.70
2010,07,13,09,13,2.80
2010,07,13,09,14,5.30
2010,07,13,09,15,2.70
2010,07,13,09,16,1.80
2010,07,13,09,17,11.80
2010,07,13,09,18,9.10
2010,07,13,09,19,6.40
2010,07,13,09,20,5.00
2010,07,13,09,21,5.50
2010,07,13,09,22,8.30
2010,07,13,09,23,6.50
2010,07,13,09,24,5.20
2010,07,13,09,25,6.80
2010,07,13,09,26,7.00
2010,07,13,09,27,4.50
2010,07,13,09,28,11.90
2010,07,13,09,29,10.00
2010,07,13,09,30,6.00
2010,07,13,09,31,7.00
2010,07,13,09,32,7.30
2010,07,13,09,33,5.60
2010,07,13,09,34,3.40
2010,07,13,09,35,6.40
2010,07,13,09,36,9.90
2010,07,13,09,37,9.10
2010,07,13,09,38,8.90
2010,07,13,09,39,10.10
2010,07,13,09,40,5.80
2010,07,13,09,41,2.90
2010,07,13,09,42,6.40
2010,07,13,09,43,7.90
2010,07,13,09,44,6.80
2010,07,13,09,45,3.70
2010,07,13,09,46,7.30
2010,07,13,09,47,5.40
2010,07,13,09,48,6.80
2010,07,13,09,49,7.90
2010,07,13,09,50,8.40
2010,07,13,09,51,11.30
2010,07,13,09,52,5.80
2010,07,13,09,53,7.30
2010,07,13,09,54,7.60
2010,07,13,09,55,5.70
2010,07,13,09,56,9.70
2010,07,13,09,57,11.10
2010,07,13,09,58,6.10
2010,07,13,09,59,5.80
2010,07,13,10,00,9.30
2010,07,13,10,01,4.90
2010,07,13,10,02,9.20
2010,07,13,10,03,11.40
2010,07,13,10,04,9.80
2010,07,13,10,05,6.90
2010,07,13,10,06,6.50
2010,07,13,10,07,7.80
2010,07,13,10,08,6.70
2010,07,13,10,09,6.60
2010,07,13,10,10,8.00
2010,07,13,10,11,11.40
2010,07,13,10,12,13.10
2010,07,13,10,13,12.70
2010,07,13,10,14,9.60
2010,07,13,10,15,11.90
2010,07,13,10,16,11.00
2010,07,13,10,17,12.30
2010,07,13,10,18,11.40
2010,07,13,10,19,11.50
2010,07,13,10,20,12.20
2010,07,13,10,21,10.20
2010,07,13,10,22,10.90
2010,07,13,10,23,9.90
2010,07,13,10,24,7.00
2010,07,13,10,25,13.80
2010,07,13,10,26,9.50
2010,07,13,10,27,8.90
2010,07,13,10,28,10.10
2010,07,13,10,29,10.80
2010,07,13,10,30,10.70
2010,07,13,10,31,9.90
2010,07,13,10,32,10.40
2010,07,13,10,33,8.10
2010,07,13,10,34,6.40
2010,07,13,10,35,10.00
2010,07,13,10,36,9.10
2010,07,13,10,37,9.10
2010,07,13,10,38,7.40
2010,07,13,10,39,11.80
2010,07,13,10,40,12.60
2010,07,13,10,41,12.40
2010,07,13,10,42,7.60
2010,07,13,10,43,9.60
2010,07,13,10,44,5.80
2010,07,13,10,45,8.20
2010,07,13,10,46,9.70
2010,07,13,10,47,9.20
2010,07,13,10,48,10.20
2010,07,13,10,49,11.10
2010,07,13,10,50,7.00
2010,07,13,10,51,8.60
2010,07,13,10,52,11.60
2010,07,13,10,53,8.80
2010,07,13,10,54,9.40
2010,07,13,10,55,6.00
2010,07,13,10,56,9.10
2010,07,13,10,57,15.40
2010,07,13,10,58,6.20
2010,07,13,10,59,7.90
2010,07,13,11,00,8.00
2010,07,13,11,01,10.70
2010,07,13,11,02,9.70
2010,07,13,11,03,10.60
2010,07,13,11,04,8.30
2010,07,13,11,05,9.80
2010,07,13,11,06,12.40
2010,07,13,11,07,12.40
2010,07,13,11,08,7.30
2010,07,13,11,09,8.80
2010,07,13,11,10,8.80
2010,07,13,11,11,13.80
2010,07,13,11,12,9.20
2010,07,13,11,13,16.00
2010,07,13,11,14,13.00
2010,07,13,11,15,8.50
2010,07,13,11,16,10.90
2010,07,13,11,17,13.00
2010,07,13,11,18,11.90
2010,07,13,11,19,12.40
2010,07,13,11,20,8.80
2010,07,13,11,21,12.20
2010,07,13,11,22,12.40
2010,07,13,11,23,13.00
2010,07,13,11,24,9.50
2010,07,13,11,25,7.80
2010,07,13,11,26,11.30
2010,07,13,11,27,11.20
2010,07,13,11,28,11.80
2010,07,13,11,29,9.80
2010,07,13,11,30,8.60
2010,07,13,11,31,12.50
2010,07,13,11,32,12.10
2010,07,13,11,33,12.10
2010,07,13,11,34,15.30
2010,07,13,11,35,10.70
2010,07,13,11,36,13.80
2010,07,13,11,37,9.80
2010,07,13,11,38,9.70
2010,07,13,11,39,6.50
2010,07,13,11,40,10.20
2010,07,13,11,41,17.70
2010,07,13,11,42,13.40
2010,07,13,11,43,7.60
2010,07,13,11,44,12.80
2010,07,13,11,45,12.20
2010,07,13,11,46,12.50
2010,07,13,11,47,14.60
2010,07,13,11,48,12.90
2010,07,13,11,49,13.80
2010,07,13,11,50,15.00
2010,07,13,11,51,16.10
2010,07,13,11,52,10.40
2010,07,13,11,53,10.90
2010,07,13,11,54,10.20
2010,07,13,11,55,6.00
2010,07,13,11,56,7.40
2010,07,13,11,57,16.60
2010,07,13,11,58,11.90
2010,07,13,11,59,11.80
2010,07,13,12,00,13.00
2010,07,13,12,01,12.10
2010,07,13,12,02,10.20
2010,07,13,12,03,9.40
2010,07,13,12,04,12.30
2010,07,13,12,05,14.30
2010,07,13,12,06,13.00
2010,07,13,12,07,12.60
2010,07,13,12,08,16.60
2010,07,13,12,09,11.70
2010,07,13,12,10,8.30
2010,07,13,12,11,13.20
2010,07,13,12,12,16.20
2010,07,13,12,13,10.90
2010,07,13,12,14,12.70
2010,07,13,12,15,8.30
2010,07,13,12,16,13.20
2010,07,13,12,17,8.30
2010,07,13,12,18,8.50
2010,07,13,12,19,5.90
2010,07,13,12,20,14.40
2010,07,13,12,21,15.80
2010,07,13,12,22,13.40
2010,07,13,12,23,9.90
2010,07,13,12,24,10.50
2010,07,13,12,25,9.70
2010,07,13,12,26,13.20
2010,07,13,12,27,9.60
2010,07,13,12,28,12.30
2010,07,13,12,29,10.30
2010,07,13,12,30,8.90
2010,07,13,12,31,13.00
2010,07,13,12,32,11.30
2010,07,13,12,33,13.90
2010,07,13,12,34,11.50
2010,07,13,12,35,7.80
2010,07,13,12,36,11.80
2010,07,13,12,37,9.30
2010,07,13,12,38,7.30
2010,07,13,12,39,8.20
2010,07,13,12,40,8.80
2010,07,13,12,41,13.90
2010,07,13,12,42,12.00
2010,07,13,12,43,15.20
2010,07,13,12,44,14.80
2010,07,13,12,45,9.10
2010,07,13,12,46,14.80
2010,07,13,12,47,10.60
2010,07,13,12,48,8.40
2010,07,13,12,49,12.40
2010,07,13,12,50,12.00
2010,07,13,12,51,7.60
2010,07,13,12,52,10.50
2010,07,13,12,53,13.00
2010,07,13,12,54,13.40
2010,07,13,12,55,6.20
2010,07,13,12,56,7.50
2010,07,13,12,57,7.90
2010,07,13,12,58,8.60
2010,07,13,12,59,10.30
2010,07,13,13,00,8.90
2010,07,13,13,01,13.60
2010,07,13,13,02,11.90
2010,07,13,13,03,8.60
2010,07,13,13,04,18.20
2010,07,13,13,05,9.10
2010,07,13,13,06,13.60
2010,07,13,13,07,11.60
2010,07,13,13,08,5.90
2010,07,13,13,09,7.20
2010,07,13,13,10,6.70
2010,07,13,13,11,6.40
2010,07,13,13,12,7.90
2010,07,13,13,13,6.70
2010,07,13,13,14,7.80
2010,07,13,13,15,7.20
2010,07,13,13,16,12.40
2010,07,13,13,17,12.70
2010,07,13,13,18,9.30
2010,07,13,13,19,14.00
2010,07,13,13,20,7.50
2010,07,13,13,21,6.50
2010,07,13,13,22,10.30
2010,07,13,13,23,8.70
2010,07,13,13,24,11.60
2010,07,13,13,25,8.50
2010,07,13,13,26,10.50
2010,07,13,13,27,13.90
2010,07,13,13,28,12.20
2010,07,13,13,29,11.40
2010,07,13,13,30,14.00
2010,07,13,13,31,9.20
2010,07,13,13,32,15.90
2010,07,13,13,33,8.20
2010,07,13,13,34,9.60
2010,07,13,13,35,9.20
2010,07,13,13,36,12.90
2010,07,13,13,37,12.10
2010,07,13,13,38,9.70
2010,07,13,13,39,15.50
2010,07,13,13,40,14.60
2010,07,13,13,41,13.80
2010,07,13,13,42,9.30
2010,07,13,13,43,7.30
2010,07,13,13,44,12.00
2010,07,13,13,45,12.10
2010,07,13,13,46,14.10
2010,07,13,13,47,9.10
2010,07,13,13,48,10.00
2010,07,13,13,49,10.90
2010,07,13,13,50,9.50
2010,07,13,13,51,12.00
2010,07,13,13,52,14.20
2010,07,13,13,53,10.80
2010,07,13,13,54,13.50
2010,07,13,13,55,10.10
2010,07,13,13,56,11.70
2010,07,13,13,57,8.40
2010,07,13,13,58,12.30
2010,07,13,13,59,12.40
2010,07,13,14,00,9.30
2010,07,13,14,01,11.10
2010,07,13,14,02,15.10
2010,07,13,14,03,11.80
2010,07,13,14,04,10.10
2010,07,13,14,05,11.80
2010,07,13,14,06,11.40
2010,07,13,14,07,7.20
2010,07,13,14,08,7.70
2010,07,13,14,09,8.90
2010,07,13,14,10,8.80
2010,07,13,14,11,9.00
2010,07,13,14,12,12.20
2010,07,13,14,13,10.10
2010,07,13,14,14,9.80
2010,07,13,14,15,8.30
2010,07,13,14,16,10.90
2010,07,13,14,17,8.90
2010,07,13,14,18,9.20
2010,07,13,14,19,13.40
2010,07,13,14,20,12.60
2010,07,13,14,21,15.60
2010,07,13,14,22,10.50
2010,07,13,14,23,10.90
2010,07,13,14,24,15.60
2010,07,13,14,25,10.60
2010,07,13,14,26,11.00
2010,07,13,14,27,10.60
2010,07,13,14,28,12.60
2010,07,13,14,29,8.20
2010,07,13,14,30,12.30
2010,07,13,14,31,9.80
2010,07,13,14,32,13.50
2010,07,13,14,33,8.40
2010,07,13,14,34,11.50
2010,07,13,14,35,17.20
2010,07,13,14,36,16.80
2010,07,13,14,37,9.30
2010,07,13,14,38,12.20
2010,07,13,14,39,17.60
2010,07,13,14,40,11.20
2010,07,13,14,41,10.10
2010,07,13,14,42,10.60
2010,07,13,14,43,9.70
2010,07,13,14,44,12.40
2010,07,13,14,45,11.40
2010,07,13,14,46,17.10
2010,07,13,14,47,13.50
2010,07,13,14,48,11.20
2010,07,13,14,49,10.70
2010,07,13,14,50,6.80
2010,07,13,14,51,8.80
2010,07,13,14,52,12.90
2010,07,13,14,53,14.10
2010,07,13,14,54,15.60
2010,07,13,14,55,14.70
2010,07,13,14,56,7.10
2010,07,13,14,57,6.00
2010,07,13,14,58,12.40
2010,07,13,14,59,14.30
2010,07,13,15,00,12.70
2010,07,13,15,01,13.50
2010,07,13,15,02,16.90
2010,07,13,15,03,16.10
2010,07,13,15,04,14.80
2010,07,13,15,05,11.10
2010,07,13,15,06,15.60
2010,07,13,15,07,14.70
2010,07,13,15,08,15.20
2010,07,13,15,09,16.30
2010,07,13,15,10,14.20
2010,07,13,15,11,11.80
2010,07,13,15,12,9.70
2010,07,13,15,13,10.70
2010,07,13,15,14,9.70
2010,07,13,15,15,11.50
2010,07,13,15,16,11.70
2010,07,13,15,17,11.50
2010,07,13,15,18,7.90
2010,07,13,15,19,8.00
2010,07,13,15,20,11.30
2010,07,13,15,21,11.30
2010,07,13,15,22,12.70
2010,07,13,15,23,8.10
2010,07,13,15,24,4.70
2010,07,13,15,25,8.80
2010,07,13,15,26,10.40
2010,07,13,15,27,12.40
2010,07,13,15,28,9.00
2010,07,13,15,29,6.90
2010,07,13,15,30,15.40
2010,07,13,15,31,11.80
2010,07,13,15,32,11.50
2010,07,13,15,33,6.40
2010,07,13,15,34,7.20
2010,07,13,15,35,7.20
2010,07,13,15,36,9.30
2010,07,13,15,37,9.40
2010,07,13,15,38,11.30
2010,07,13,15,39,8.60
2010,07,13,15,40,6.00
2010,07,13,15,41,8.00
2010,07,13,15,42,12.90
2010,07,13,15,43,10.40
2010,07,13,15,44,12.60
2010,07,13,15,45,12.20
2010,07,13,15,46,13.10
2010,07,13,15,47,12.10
2010,07,13,15,48,11.00
2010,07,13,15,49,11.50
2010,07,13,15,50,8.60
2010,07,13,15,51,9.20
2010,07,13,15,52,9.20
2010,07,13,15,53,11.00
2010,07,13,15,54,8.40
2010,07,13,15,55,10.90
2010,07,13,15,56,10.80
2010,07,13,15,57,12.30
2010,07,13,15,58,11.30
2010,07,13,15,59,10.10
2010,07,13,16,00,11.60
2010,07,13,16,01,13.00
2010,07,13,16,02,12.30
2010,07,13,16,03,10.20
2010,07,13,16,04,10.60
2010,07,13,16,05,11.70
2010,07,13,16,06,7.40
2010,07,13,16,07,4.70
2010,07,13,16,08,8.10
2010,07,13,16,09,12.90
2010,07,13,16,10,9.70
2010,07,13,16,11,10.80
2010,07,13,16,12,10.90
2010,07,13,16,13,11.90
2010,07,13,16,14,12.90
2010,07,13,16,15,10.60
2010,07,13,16,16,6.80
2010,07,13,16,17,7.60
2010,07,13,16,18,8.10
2010,07,13,16,19,8.60
2010,07,13,16,20,9.90
2010,07,13,16,21,8.20
2010,07,13,16,22,10.70
2010,07,13,16,23,8.30
2010,07,13,16,24,7.60
2010,07,13,16,25,10.70
2010,07,13,16,26,8.60
2010,07,13,16,27,6.80
2010,07,13,16,28,4.70
2010,07,13,16,29,9.20
2010,07,13,16,30,10.10
2010,07,13,16,31,10.50
2010,07,13,16,32,10.00
2010,07,13,16,33,11.00
2010,07,13,16,34,11.50
2010,07,13,16,35,9.90
2010,07,13,16,36,11.60
2010,07,13,16,37,7.70
2010,07,13,16,38,13.40
2010,07,13,16,39,11.60
2010,07,13,16,40,13.10
2010,07,13,16,41,11.00
2010,07,13,16,42,12.70
2010,07,13,16,43,9.80
2010,07,13,16,44,9.70
2010,07,13,16,45,10.40
2010,07,13,16,46,10.90
2010,07,13,16,47,8.90
2010,07,13,16,48,7.60
2010,07,13,16,49,11.10
2010,07,13,16,50,8.00
2010,07,13,16,51,9.10
2010,07,13,16,52,9.30
2010,07,13,16,53,7.50
2010,07,13,16,54,8.30
2010,07,13,16,55,9.00
2010,07,13,16,56,7.80
2010,07,13,16,57,7.10
2010,07,13,16,58,7.90
2010,07,13,16,59,10.00
2010,07,13,17,00,13.00
2010,07,13,17,01,14.20
2010,07,13,17,02,10.20
2010,07,13,17,03,8.80
2010,07,13,17,04,5.70
2010,07,13,17,05,6.20
2010,07,13,17,06,5.70
2010,07,13,17,07,8.20
2010,07,13,17,08,8.40
2010,07,13,17,09,7.40
2010,07,13,17,10,10.30
2010,07,13,17,11,8.00
2010,07,13,17,12,10.80
2010,07,13,17,13,15.80
2010,07,13,17,14,10.90
2010,07,13,17,15,6.20
2010,07,13,17,16,9.10
2010,07,13,17,17,5.00
2010,07,13,17,18,6.90
2010,07,13,17,19,13.10
2010,07,13,17,20,14.00
2010,07,13,17,21,10.70
2010,07,13,17,22,10.60
2010,07,13,17,23,10.70
2010,07,13,17,24,7.20
2010,07,13,17,25,10.90
2010,07,13,17,26,8.00
2010,07,13,17,27,9.90
2010,07,13,17,28,3.20
2010,07,13,17,29,8.30
2010,07,13,17,30,8.90
2010,07,13,17,31,3.40
2010,07,13,17,32,9.60
2010,07,13,17,33,10.60
2010,07,13,17,34,7.20
2010,07,13,17,35,9.90
2010,07,13,17,36,5.80
2010,07,13,17,37,3.80
2010,07,13,17,38,2.90
2010,07,13,17,39,1.90
2010,07,13,17,40,3.60
2010,07,13,17,41,11.10
2010,07,13,17,42,7.90
2010,07,13,17,43,12.60
2010,07,13,17,44,7.60
2010,07,13,17,45,6.20
2010,07,13,17,46,12.50
2010,07,13,17,47,7.50
2010,07,13,17,48,11.10
2010,07,13,17,49,8.00
2010,07,13,17,50,9.00
2010,07,13,17,51,8.70
2010,07,13,17,52,12.10
2010,07,13,17,53,9.30